Overview Statistics Trail Chart Weather Telemetry Raw packets
 

This is the latest recevied weather packets stored in our database for station/object SQ9SMC-13. If no packets are shown the sender has not sent any weather packets the latest 10 day(s).

<< 48 49 50 51 52 53 54 >>
Time Temp. Humidity Pressure Rain* Wind** Luminosity Snow
1777374008 12.22° C 28% 1026 hPa 0 mm - 646 W/m² -
1777373703 11.67° C 31% 1026.1 hPa 0 mm - 643 W/m² -
1777373407 12.22° C 29% 1026.2 hPa 0 mm - 648 W/m² -
1777373103 11.67° C 30% 1026.1 hPa 0 mm - 646 W/m² -
1777372808 11.67° C 31% 1026.2 hPa 0 mm - 648 W/m² -
1777372503 10.56° C 30% 1026.2 hPa 0 mm - 649 W/m² -
1777372209 11.11° C 33% 1026.2 hPa 0 mm - 648 W/m² -
1777371903 11.11° C 30% 1026.3 hPa 0 mm - 645 W/m² -
1777371606 11.67° C 30% 1026.2 hPa 0 mm - 636 W/m² -
1777371303 10.56° C 31% 1026.2 hPa 0 mm - 643 W/m² -
1777371004 11.11° C 31% 1026.3 hPa 0 mm - 636 W/m² -
1777370704 11.11° C 31% 1026.4 hPa 0 mm - 636 W/m² -
1777370406 11.11° C 32% 1026.3 hPa 0 mm - 631 W/m² -
1777370103 11.11° C 32% 1026.3 hPa 0 mm - 626 W/m² -
1777369804 11.11° C 31% 1026.4 hPa 0 mm - 623 W/m² -
1777369503 10.56° C 32% 1026.4 hPa 0 mm - 618 W/m² -
1777369202 10° C 32% 1026.5 hPa 0 mm - 613 W/m² -
1777368905 10° C 35% 1026.5 hPa 0 mm - 608 W/m² -
1777368604 10.56° C 31% 1026.5 hPa 0 mm - 603 W/m² -
1777368303 10° C 33% 1026.5 hPa 0 mm - 599 W/m² -
1777368007 9.44° C 33% 1026.3 hPa 0 mm - 586 W/m² -
1777367704 10° C 33% 1026.5 hPa 0 mm - 583 W/m² -
1777367403 10° C 33% 1026.4 hPa 0 mm - 580 W/m² -
1777367102 10° C 32% 1026.5 hPa 0 mm - 574 W/m² -
1777366805 9.44° C 33% 1026.4 hPa 0 mm - 567 W/m² -

* Rain latest hour (hover to see other rain measurements)
** Current wind speed in m/s (hover to see current wind gust speed)